Location: Akhali Burguli
(42.0761°N, 44.5344°E)
Time: 11:10:12
(UTC+00:00)

Daily predictions for brighter satellites

Satellite Brightness Start Highest point End
(mag) Time Altitude Azimuth Time Altitude Azimuth Time Altitude Azimuth
NOAA 11 4.4 13:52:17 10° S 13:57:42 80° WSW 14:03:10 10° NNW
Cosmos 540 Rocket 3.9 13:54:44 10° S 13:59:29 42° ESE 14:04:17 10° NNE
COSMOS 2406 3.5 13:54:53 10° S 14:00:25 51° ESE 14:05:57 10° NE
Cosmos 1833 Rocket 2.7 13:56:52 10° SSW 14:02:26 69° ESE 14:08:02 10° NNE
Cosmos 1602 4.3 14:04:17 10° N 14:07:52 36° ENE 14:11:27 10° SE
Cosmos 1634 Rocket 4.3 14:05:59 10° SSE 14:11:56 46° E 14:17:55 10° NNE
COSMO-SKYMED 1 4.0 14:10:10 10° NE 14:13:15 19° E 14:16:20 10° SE
SL-08 R/B 4.1 14:08:42 10° N 14:13:17 53° WNW 14:17:46 10° SSW
Cosmos 468 Rocket 4.1 14:08:13 10° SSW 14:13:22 86° WNW 14:18:36 10° NNE
COSMOS 2455 3.1 14:09:32 10° S 14:15:19 51° ESE 14:21:09 10° NE
Cosmos 1782 3.3 14:13:03 10° SSE 14:16:47 39° E 14:20:30 10° NNE
Cosmos 1898 Rocket 3.4 14:14:08 10° NNW 14:19:24 72° ENE 14:24:34 10° SSE
Cosmos 2026 Rocket 4.1 14:14:09 10° N 14:20:07 52° ENE 14:26:00 10° SSE
Cosmos 1633 Rocket 4.3 14:18:33 10° NNE 14:21:48 20° ENE 14:25:02 10° ESE
CZ-4B R/B 3.8 14:18:07 10° SE 14:22:48 31° ENE 14:27:27 10° N
CZ-2C R/B 3.5 14:18:13 10° S 14:23:06 61° W 14:27:51 10° NNW
Cosmos 2195 Rocket 4.5 14:17:30 10° N 14:23:39 66° E 14:29:48 10° SSE
CZ-2C R/B 3.4 14:19:50 10° NE 14:24:18 29° E 14:28:44 10° SSE
Cosmos 2360 4.2 14:22:56 10° NNW 14:28:41 72° ENE 14:34:22 10° SSE
CZ-2D R/B 3.6 14:25:07 10° SE 14:28:45 41° ENE 14:32:21 10° N
Cosmos 1340 Rocket 3.8 14:25:54 10° NNW 14:29:53 52° W 14:33:50 10° S
Meteor 1-20 Rocket 4.4 14:25:39 10° N 14:31:31 85° W 14:37:21 10° S
USA 267 3.8 14:26:40 10° NE 14:33:00 55° NNW 14:39:20 10° WSW
Cosmos 1151 Rocket 3.7 14:29:24 10° SSE 14:33:17 33° E 14:37:11 10° NNE
Okean O Rocket 2.5 14:31:53 10° SE 14:35:36 27° ENE 14:39:20 10° N
Cosmos 1743 Rocket 4.1 14:31:59 10° NNW 14:36:15 62° W 14:40:30 10° S
Cosmos 1500 3.2 14:34:24 10° N 14:38:04 52° E 14:41:42 10° SSE
Meteor 1-26 Rocket 4.3 14:32:15 10° S 14:38:09 72° E 14:44:11 10° NNE
Lacrosse 5 rocket 3.0 14:36:07 10° NNW 14:38:33 16° NNE 14:39:23 15° NE
H-2A R/B 2.0 14:36:12 10° SSE 14:41:17 57° ENE 14:46:14 10° N
Cosmos 1809 Rocket 4.4 14:37:16 10° N 14:43:23 87° E 14:49:27 10° S
Cosmos 1666 Rocket 3.8 14:43:25 10° N 14:47:42 44° ENE 14:51:54 10° SSE
Meteor 2-21 Rocket 4.4 14:43:20 10° N 14:49:22 61° E 14:55:21 10° SSE
GPS 2-04 Rocket1 4.2 14:46:33 10° WSW 14:50:14 32° S 14:53:23 13° SE
Cosmos 1328 Rocket 4.1 14:46:18 10° SSE 14:50:21 36° E 14:53:17 17° NNE
USA 229 DEB 4.2 14:43:48 10° NW 14:51:13 74° WSW 14:59:02 10° SSE
USA 229 4.2 14:43:54 10° NW 14:51:18 74° WSW 14:59:08 10° SSE
MOS 1-B 4.3 14:46:05 10° SSE 14:51:49 74° ENE 14:57:36 10° N
Cosmos 841 Rocket 3.5 14:47:50 10° SSW 14:53:00 83° WNW 14:58:11 10° NNE
PSLV R/B 3.8 14:53:24 10° S 14:57:03 73° WSW 15:00:47 10° NNW
Landsat 5 3.9 14:55:36 25° NE 14:57:14 36° E 15:00:55 10° SSE
Cosmos 1937 Rocket 3.8 14:54:11 10° NNW 14:59:29 71° WSW 15:04:45 10° S
USA 276 4.0 14:57:07 10° WNW 14:59:54 30° SW 15:02:40 10° SSE
SKYMED 2 3.5 14:57:34 12° NNE 15:01:35 62° E 15:05:52 10° S
SL-24 R/B - RUBIN 2 3.4 15:00:05 10° NNW 15:04:34 72° NE 15:08:51 10° SE
Cosmos 2322 Rocket 3.7 15:01:07 10° N 15:04:06 18° NE 15:04:06 18° NE
USA 234 3.3 14:58:45 10° SE 15:05:18 83° SW 15:11:53 10° NW
Cosmos 1697 Rocket 3.6 15:01:50 10° NW 15:07:16 51° WSW 15:12:40 10° S
Cosmos 1666 2.5 15:03:52 10° N 15:07:34 65° E 15:11:15 10° SSE
Cosmos 372 Rocket 4.0 15:05:41 10° NNW 15:10:57 87° WSW 15:16:12 10° SSE
Cosmos 1980 Rocket 2.1 15:06:01 10° NNW 15:11:43 88° ENE 15:17:20 10° SSE
Meteor 1-14 Rocket 4.2 15:06:04 10° N 15:11:56 81° E 15:17:52 10° SSE
Cosmos 2369 4.0 15:07:42 10° NNW 15:13:25 72° WSW 15:19:05 10° SSE
Sich 1 4.0 15:10:33 10° NNW 15:14:41 47° W 15:18:49 10° SSW
CZ-4C R/B 3.0 15:07:51 10° NNW 15:15:08 65° NE 15:23:35 10° SE
MOS 1-B Rocket 4.2 15:09:28 10° NNE 15:15:25 79° WNW 15:22:15 10° SSW
SL-08 RB Rocket 3.8 15:12:56 10° SSE 15:17:25 50° ENE 15:21:53 10° N
Meteor 1-5 Rocket 4.2 15:11:24 10° N 15:17:26 80° E 15:23:18 10° SSE
SL-16 R/B 3.0 15:18:02 10° N 15:22:20 31° NE 15:22:20 31° NE
Cosmos 2082 Rocket 2.7 15:18:27 10° SW 15:24:02 58° WNW 15:28:51 14° NNE
Cosmos 1812 3.5 15:20:34 10° SSW 15:24:19 52° W 15:27:38 13° N
deb Chang Zheng 4 3.6 15:21:35 10° S 15:25:53 77° WSW 15:30:12 10° NNW
Cosmos 1515 Rocket 3.8 15:28:01 10° S 15:31:40 50° SE 15:31:40 50° SE
ISS -2.9 15:29:32 10° NW 15:31:59 43° NW 15:31:59 43° NW
Cosmos 44 Rocket 3.7 15:31:37 10° NNW 15:35:37 45° NNE 15:35:37 45° NNE
Cosmos 2278 3.7 15:31:49 10° NNW 15:37:34 81° WSW 15:43:13 10° SSE
Cosmos 2279 Rocket 4.5 15:34:09 10° SSW 15:40:15 59° W 15:46:24 10° N
ARGOS 3.4 15:35:54 10° S 15:41:17 70° WSW 15:46:42 10° NNW
Meteor 1-27 Rocket 4.1 15:37:38 10° SSE 15:41:41 42° SE 15:41:41 42° SE
Cosmos 1900 4.4 15:40:36 10° SW 15:45:26 71° WNW 15:46:29 53° N
Cosmos 2266 Rocket 3.9 15:40:52 10° N 15:47:17 77° E 15:53:41 10° SSE
IRAS Rocket 4.4 15:48:51 50° SE 15:48:51 50° SE 15:53:25 10° S
DMSP B5D2-2 3.9 15:48:30 68° ESE 15:48:30 68° ESE 15:53:35 10° S
Cosmos 2298 Rocket 4.1 15:43:33 10° NNW 15:48:13 60° NNE 15:48:13 60° NNE
COSMO-SKYMED 1 3.9 15:46:11 14° N 15:49:33 39° WNW 15:53:35 10° SW
Meteor 2-15 Rocket 4.3 15:43:45 10° S 15:49:52 80° E 15:53:23 27° NNE
NOAA 15 4.4 15:46:33 10° SSE 15:51:50 81° ENE 15:57:08 10° NNW
ATLAS CENTAUR R/B 4.0 15:47:22 10° W 15:53:28 24° NW 15:55:01 20° N
GEOS 3 Rocket 3.9 15:56:50 54° N 15:56:50 54° N 16:01:08 10° NNW
Cosmos 921 Rocket 3.4 15:52:20 10° SSW 15:55:53 57° WSW 15:55:53 57° WSW
Cosmos 1818 3.5 15:53:00 10° NNW 15:58:08 74° N 15:58:08 74° N
COSMOS 2455 4.4 15:56:16 10° WSW 16:01:30 30° NW 16:05:04 18° N
CZ-2C R/B 3.4 15:59:25 10° SW 16:01:16 19° SSW 16:01:16 19° SSW
CZ-2C R/B 4.0 15:59:57 10° N 16:04:37 35° WNW 16:09:15 10° SW
Okean O Rocket 3.5 16:07:57 10° SSW 16:11:50 29° W 16:15:45 10° NW
Lacrosse 5 rocket 3.9 16:14:17 10° NW 16:15:00 15° NW 16:15:00 15° NW
Meteor 1-11 Rocket 4.0 16:16:55 10° NNW 16:22:30 65° W 16:28:10 10° S
Cosmos 2360 Rocket 4.4 16:24:31 10° NNW 16:25:22 14° N 16:25:22 14° N
Cosmos 2322 Rocket 4.1 16:44:06 10° NNW 16:45:58 22° NNW 16:45:58 22° NNW
CZ-4C R/B 4.4 16:56:53 10° NW 17:03:37 34° WSW 17:11:03 10° S
SL-16 R/B 4.2 17:02:00 10° NW 17:04:16 23° NW 17:04:16 23° NW
